Temp
14 14 14 14 14 13 13 13 13 13 13 13 13 13 12 12 12 12 11 10 9 8 8 8 9 9 8 8 7 5 6 6 7 8 8 9 9 9 9 8 8 8 8
13 13 13 13 13 13 13 13 13 12 12 12 12 12 12 12 12 11 11 9 8 8 9 8 7 8 6 6 6 5 5 5 6 6 7 8 8 8 8 8 8 8 8
12 12 12 12 12 12 12 12 11 11 12 12 12 11 11 11 11 11 10 9 8 9 10 9 9 7 6 5 5 5 5 5 5 5 6 6 7 7 7 7 7 7 7
11 11 11 10 10 9 9 9 9 9 8 8 8 8 9 9 9 10 9 9 9 9 9 9 9 7 6 5 5 5 4 4 4 4 5 5 6 6 6 6 5 6 6
10 9 9 8 8 8 8 7 7 7 7 7 7 7 7 7 7 7 8 8 7 8 8 8 7 6 5 5 4 4 3 3 3 4 4 4 5 4 5 5 5 4 4
8 8 7 7 6 6 5 5 6 6 6 6 6 6 7 7 6 5 6 7 7 5 6 5 4 4 4 5 4 4 3 3 3 3 3 3 3 4 4 4 2 1 1
6 5 5 4 4 4 4 4 4 4 4 5 5 5 6 6 6 4 5 4 3 4 5 4 3 3 3 4 4 3 3 3 2 2 2 3 3 3 3 3 2 2 3
4 3 3 2 2 2 2 2 3 3 3 3 3 4 4 4 4 3 3 3 2 3 3 3 3 2 2 3 3 3 2 2 2 2 2 3 3 3 3 2 1 1 -0
2 2 2 2 2 1 1 1 2 2 2 2 2 2 2 3 3 3 2 2 1 1 1 2 2 2 2 2 2 2 1 1 1 1 1 2 2 2 2 0 -1 -1 -2
1 0 1 2 1 1 1 1 1 1 1 2 2 2 2 3 3 2 2 2 1 1 2 1 1 1 2 2 1 1 0 -0 -0 -0 0 1 1 1 0 -0 -1 -1 -2
1 -0 -0 0 0 0 0 1 0 1 1 1 1 1 0 0 1 1 0 0 0 1 1 1 1 1 1 1 1 0 -0 -1 -1 -1 -1 -1 -0 -0 -1 -1 -1 -2 -2
0 -0 -1 -1 -1 -0 -0 0 0 0 0 0 0 0 -1 -1 -1 -1 -1 -1 -0 0 0 1 1 1 1 0 0 -0 -1 -2 -2 -2 -3 -3 -3 -2 -2 -2 -2 -2 -2
-1 -1 -2 -2 -1 -1 -1 -1 -0 -0 -0 -0 -0 -1 -1 -1 -1 -1 -1 -1 -1 -0 -0 0 0 0 -0 -1 -1 -1 -2 -2 -3 -4 -4 -4 -3 -3 -3 -3 -3 -2 -2
-2 -2 -2 -2 -2 -2 -1 -1 -1 -1 -1 -1 -1 -1 -1 -1 -1 -2 -2 -2 -2 -2 -0 -0 -1 -1 -1 -2 -2 -3 -3 -3 -4 -5 -5 -5 -4 -4 -4 -3 -3 -4 -3
-2 -2 -2 -1 -1 -1 -2 -2 -2 -1 -1 -1 -1 -2 -2 -2 -2 -2 -2 -3 -3 -2 -2 -2 -2 -3 -3 -3 -3 -3 -3 -4 -4 -5 -5 -5 -5 -5 -5 -4 -4 -4 -6
-2 -2 -2 -2 -2 -2 -2 -2 -1 -1 -1 -1 -1 -1 -1 -2 -2 -2 -3 -3 -3 -2 -2 -2 -3 -3 -3 -3 -3 -4 -4 -4 -5 -5 -5 -5 -6 -6 -6 -5 -5 -6 -7
-2 -2 -2 -2 -2 -2 -2 -2 -2 -1 -1 -1 -1 -0 -1 -1 -3 -3 -3 -3 -2 -2 -2 -3 -3 -3 -3 -3 -3 -4 -5 -5 -5 -5 -5 -6 -6 -6 -6 -6 -7 -7 -8
-2 -2 -2 -2 -3 -3 -2 -2 -2 -2 -1 -1 -1 -1 -1 -1 -2 -3 -3 -3 -2 -3 -3 -3 -3 -3 -3 -3 -4 -4 -5 -5 -5 -5 -5 -5 -6 -6 -6 -7 -7 -7 -8
-1 -2 -2 -2 -2 -3 -3 -2 -3 -2 -1 -2 -2 -2 -1 -1 -2 -3 -3 -2 -3 -3 -3 -3 -3 -3 -3 -3 -4 -4 -4 -5 -5 -5 -5 -5 -5 -5 -6 -6 -7 -7 -7
-1 -1 -2 -2 -3 -3 -4 -3 -3 -2 -2 -2 -3 -2 -2 -3 -3 -3 -3 -3 -3 -3 -3 -3 -3 -3 -3 -3 -4 -4 -5 -5 -5 -5 -6 -6 -6 -5 -5 -5 -6 -7 -7
-1 -2 -2 -2 -3 -4 -4 -4 -3 -2 -2 -2 -3 -3 -3 -3 -3 -3 -3 -3 -3 -3 -3 -3 -3 -3 -4 -4 -4 -4 -5 -5 -5 -5 -5 -6 -5 -5 -5 -5 -5 -5 -6
-2 -2 -2 -3 -4 -4 -4 -4 -4 -3 -2 -2 -3 -3 -3 -3 -3 -3 -3 -3 -2 -2 -3 -3 -3 -4 -4 -4 -4 -4 -4 -5 -5 -5 -5 -5 -5 -5 -5 -5 -5 -5 -6
-2 -2 -2 -3 -4 -5 -5 -5 -5 -4 -3 -3 -3 -3 -3 -3 -3 -3 -3 -3 -3 -3 -3 -3 -4 -4 -4 -4 -4 -4 -4 -5 -5 -5 -5 -5 -5 -5 -5 -5 -6 -6 -6
-2 -3 -3 -4 -5 -5 -5 -5 -5 -5 -4 -3 -3 -3 -3 -3 -3 -3 -3 -3 -3 -3 -3 -3 -4 -4 -4 -4 -4 -4 -4 -4 -5 -4 -4 -5 -5 -5 -5 -6 -6 -6 -7
-3 -4 -4 -5 -5 -5 -6 -6 -6 -6 -5 -4 -3 -3 -2 -2 -3 -3 -3 -3 -4 -4 -4 -4 -4 -4 -4 -4 -4 -4 -5 -5 -5 -5 -5 -5 -5 -5 -6 -6 -7 -7 -8
-4 -5 -5 -6 -6 -6 -6 -6 -6 -6 -6 -5 -4 -3 -2 -3 -3 -3 -3 -3 -4 -4 -4 -4 -4 -4 -4 -4 -5 -5 -5 -5 -5 -5 -5 -5 -5 -6 -6 -7 -7 -8 -8
Height
797 797 796 795 794 792 790 788 786 784 782 779 777 774 772 770 768 766 763 761 759 756 756 752 753 754 751 749 747 747 744 742 738 732 733 731 731 731 729 729 733 737 739
792 793 792 791 790 788 786 784 782 779 777 775 771 768 766 763 761 758 756 755 754 753 748 746 745 745 744 744 742 740 737 737 736 731 728 727 724 722 723 722 724 726 729
789 789 788 786 785 783 782 780 778 775 772 768 766 762 758 755 753 751 748 749 748 747 744 741 742 741 739 739 736 734 732 730 730 729 721 721 719 717 713 714 715 716 719
789 788 787 785 782 780 777 775 772 770 767 764 762 758 753 750 747 745 745 744 742 740 739 736 734 733 732 731 729 727 725 725 724 722 716 711 710 703 706 707 708 708 712
786 785 784 783 781 778 774 772 769 767 764 761 757 754 751 747 744 742 740 738 738 737 733 730 728 727 725 725 722 719 720 717 716 713 709 707 703 698 694 698 702 706 709
784 782 781 778 776 775 773 770 766 763 758 756 754 750 746 744 741 745 738 733 731 732 727 724 721 718 717 718 716 713 713 711 708 704 702 700 692 689 689 690 696 705 712
781 780 779 776 774 773 771 766 762 760 756 752 748 746 741 740 738 737 734 729 729 725 720 717 713 710 709 710 708 707 705 704 701 699 696 691 686 684 684 687 689 693 700
781 779 777 775 772 769 766 764 760 755 752 748 744 741 737 736 734 731 726 722 717 717 714 710 707 704 704 702 701 698 697 697 696 693 688 682 677 679 682 682 685 694 699
778 778 777 775 771 767 762 758 756 754 749 745 742 737 734 731 727 724 721 717 713 710 707 704 702 698 696 697 696 693 693 693 692 687 681 675 674 677 679 685 690 695 704
779 778 776 774 770 765 762 757 752 748 745 741 737 733 730 726 723 720 716 712 708 705 701 698 697 694 692 691 690 690 691 689 687 681 677 674 676 678 680 684 688 695 703
778 775 772 769 766 762 759 754 748 745 742 737 733 729 726 722 717 714 711 707 702 697 693 691 690 689 687 685 685 685 686 685 681 678 674 675 677 679 682 686 691 693 701
776 773 769 766 762 759 754 751 747 742 738 733 729 725 721 717 713 709 705 701 697 692 687 685 682 681 681 681 681 682 682 680 678 676 676 678 680 682 686 689 694 700 703
771 769 765 761 759 756 751 748 745 740 735 730 726 722 717 712 707 703 699 695 690 686 683 680 678 677 677 677 678 679 679 678 677 677 678 682 684 686 688 692 698 702 707
768 764 762 758 755 748 747 745 744 738 733 728 724 719 714 707 702 698 694 690 685 682 679 676 675 675 675 676 678 678 678 678 678 679 682 685 688 691 694 697 701 707 711
765 761 759 756 750 747 743 742 740 735 731 726 722 717 710 703 698 694 690 686 682 679 677 675 674 674 675 677 679 679 679 680 681 682 685 688 692 695 699 703 706 710 715
761 760 756 749 746 745 741 737 735 730 726 722 718 713 707 700 693 688 684 680 677 675 674 674 674 674 675 677 678 680 681 683 685 685 688 692 696 700 704 708 711 715 721
759 757 752 748 745 743 739 734 727 723 720 716 712 708 703 696 689 683 677 674 672 671 671 672 673 674 676 678 679 681 684 687 688 690 692 696 700 705 708 712 717 721 727
756 752 750 749 744 741 736 731 726 722 717 711 706 703 698 692 685 679 674 671 670 670 671 672 673 675 676 678 680 683 686 689 691 693 696 699 703 707 712 716 720 724 730
751 746 746 744 741 738 733 729 724 720 715 710 704 699 695 689 684 679 675 673 671 671 672 673 674 675 677 679 681 684 688 691 693 696 699 703 707 710 716 720 724 728 732
746 747 745 742 737 733 729 726 722 718 713 708 703 698 692 687 683 680 677 674 673 672 673 673 674 675 677 679 682 686 689 693 696 699 702 706 710 713 718 722 726 730 736
743 743 740 737 732 729 726 723 719 715 710 705 700 695 692 688 684 681 678 675 674 673 673 673 674 676 677 679 683 686 690 694 697 701 704 708 712 716 721 725 729 734 737
739 737 735 731 728 725 722 719 716 712 707 702 696 692 689 686 683 681 678 676 674 673 673 673 674 676 678 679 683 686 690 694 698 702 706 710 715 720 723 727 731 736 740
732 731 729 726 723 721 718 716 712 708 703 699 693 689 685 683 681 679 678 676 675 674 673 674 675 676 678 680 683 686 689 693 698 702 707 712 716 721 725 728 732 737 742
726 725 723 720 718 716 714 712 708 705 700 695 690 685 681 680 678 677 676 676 675 674 674 674 675 676 678 681 683 686 690 694 699 704 708 712 717 722 726 729 734 738 742
719 718 716 715 713 711 710 707 704 701 696 692 687 681 677 675 675 674 674 674 674 674 674 674 675 677 679 681 684 687 691 695 700 704 709 713 718 722 726 730 735 739 742
712 712 710 709 707 706 704 702 699 696 693 688 683 678 674 671 670 670 671 671 672 672 673 674 675 677 679 682 684 688 692 696 701 705 710 714 718 723 727 731 735 738 741
Wind_Speed
10 12 14 17 18 18 19 21 24 26 27 26 26 26 26 27 25 25 26 22 19 18 16 15 21 24 25 26 26 22 20 15 11 24 24 27 30 35 33 40 45 46 49
11 14 15 18 21 23 23 24 25 27 28 29 30 30 31 32 33 30 26 18 15 15 16 19 22 27 28 25 26 25 21 18 17 17 25 24 28 32 37 41 42 46 49
16 18 20 22 24 25 26 29 30 32 32 34 35 35 36 36 35 32 30 22 19 19 19 14 24 29 26 23 23 23 22 22 21 21 28 25 28 29 35 41 40 42 45
16 19 21 22 23 22 20 20 23 24 25 26 26 26 26 29 33 32 25 21 19 22 25 21 22 26 25 27 25 23 24 23 22 24 27 26 25 28 34 30 23 29 31
13 15 17 20 21 22 26 28 30 31 30 31 31 30 24 21 22 18 9 11 20 28 24 24 24 27 28 26 26 24 24 22 21 23 24 21 22 19 28 22 22 21 24
13 16 14 17 23 25 28 29 29 26 29 32 29 26 25 17 18 20 14 16 17 21 23 27 28 27 23 26 26 25 28 27 24 22 21 18 22 23 26 28 24 18 5
13 13 19 22 23 25 26 25 25 29 31 30 29 29 26 24 23 21 24 21 23 25 25 27 29 29 25 26 25 25 25 25 29 33 27 23 19 24 27 26 30 34 21
15 17 19 22 22 22 21 24 27 27 29 29 29 29 28 25 26 29 27 28 26 28 29 27 26 28 26 24 25 24 23 22 24 24 27 23 22 27 27 28 30 17 20
17 19 21 21 21 24 25 26 27 28 26 25 27 30 34 34 27 24 26 26 26 28 29 29 26 28 24 23 21 22 22 24 23 15 15 11 15 24 30 23 22 23 13
18 19 19 20 21 21 23 25 23 25 26 27 28 25 26 28 25 24 25 27 26 27 27 27 26 25 24 21 19 21 21 21 16 13 9 4 8 16 25 27 30 22 21
14 15 18 19 20 21 23 23 24 24 26 26 25 27 26 24 25 24 25 24 25 24 23 25 25 22 20 17 16 18 21 16 12 8 4 7 14 21 24 24 29 36 24
15 16 18 21 21 20 21 24 24 22 21 22 21 23 23 23 25 24 25 25 24 25 23 27 25 19 15 14 14 13 13 10 11 10 12 13 15 18 21 25 28 24 19
16 18 19 20 20 22 22 23 23 20 18 19 17 22 22 25 26 25 25 26 24 25 24 22 17 14 11 11 10 10 10 13 16 16 16 16 17 24 28 29 25 21 21
15 17 17 18 20 20 23 20 20 19 19 19 20 23 25 26 25 23 23 24 28 24 23 15 12 8 8 8 9 11 12 15 17 19 19 22 24 25 27 29 29 28 31
14 15 17 18 18 21 20 20 21 21 21 22 22 23 24 24 25 27 28 27 25 24 21 11 7 9 10 14 13 13 14 15 18 21 22 22 23 25 24 26 29 23 22
13 16 17 19 20 19 20 21 24 22 24 23 22 25 29 28 28 28 28 27 24 19 12 10 11 12 12 14 14 14 16 17 19 24 23 22 21 22 23 22 25 27 24
12 16 18 20 20 18 20 20 19 25 26 23 22 24 26 27 27 27 25 20 15 10 10 12 10 12 12 14 15 17 15 17 21 22 24 23 23 22 23 23 23 25 22
12 14 19 22 23 23 21 22 20 21 21 23 26 25 25 27 26 26 19 12 7 10 11 12 12 13 16 16 17 18 19 21 21 23 23 23 23 24 22 21 22 24 24
15 16 18 23 22 23 21 20 21 22 21 21 22 23 23 24 21 16 12 7 5 8 7 11 13 16 18 18 20 20 21 20 21 22 21 22 22 24 22 22 24 24 24
14 15 17 21 21 22 21 19 20 22 21 20 19 21 22 20 20 15 11 9 5 6 9 12 15 18 20 21 21 21 20 20 20 20 20 21 22 25 27 26 27 27 25
15 14 18 20 20 22 22 20 21 21 20 21 20 24 17 15 15 15 13 9 7 9 11 13 17 19 21 23 23 22 21 21 21 21 22 23 24 27 26 25 25 24 23
15 15 18 19 20 22 23 24 23 22 21 22 22 23 16 14 12 12 11 8 8 10 12 14 17 20 23 24 24 23 22 22 22 23 24 25 25 26 25 24 23 23 24
17 16 18 18 19 21 22 24 23 22 22 23 23 23 20 14 12 11 10 9 9 9 11 14 16 19 20 21 23 23 23 24 24 26 27 27 26 26 25 24 24 23 21
18 16 16 17 18 20 22 23 24 23 24 24 24 21 23 18 14 13 11 10 8 9 11 13 16 18 19 20 21 21 22 23 23 26 26 27 25 25 25 24 23 21 18
15 15 15 16 17 19 22 23 23 22 23 23 24 23 25 21 17 16 14 12 11 11 12 14 15 17 18 19 19 20 20 21 25 25 25 25 24 24 23 23 22 20 20
12 15 15 16 18 19 21 22 23 22 22 24 25 26 25 23 21 18 16 12 12 14 14 15 16 17 18 17 17 18 20 22 24 24 25 24 25 24 22 21 19 18 17
Wind_Direction
331 330 324 321 318 323 319 315 315 310 306 301 303 305 304 303 300 295 297 299 293 302 298 292 293 298 295 296 299 291 283 278 275 281 273 267 252 236 227 221 221 217 218
350 343 339 331 326 322 319 317 317 317 311 302 301 299 299 299 298 291 287 279 272 273 277 316 306 312 300 295 292 279 276 280 280 286 283 275 261 243 233 224 217 213 215
345 335 328 325 323 322 323 320 316 314 313 311 308 307 306 304 293 288 272 271 259 279 282 261 279 296 295 284 282 274 268 272 270 273 279 276 269 248 225 224 217 210 209
354 345 340 340 343 342 346 351 351 347 347 341 336 337 327 315 304 290 279 274 277 289 266 273 272 280 285 287 282 278 275 270 269 266 269 271 273 242 225 208 201 199 194
11 7 356 346 344 340 337 335 332 329 330 331 331 328 344 348 326 306 303 315 321 302 280 272 278 286 295 284 282 276 270 269 268 266 270 264 259 225 203 201 195 178 174
2 352 360 346 338 337 334 330 329 328 326 327 325 323 316 324 355 321 328 313 285 270 293 297 295 295 291 288 283 279 275 271 272 268 268 262 269 229 204 189 161 152 145
15 6 349 345 339 332 325 324 322 321 323 323 320 317 316 314 304 284 303 310 301 294 295 295 298 299 296 288 285 282 273 276 276 265 260 257 265 218 198 189 175 176 177
4 358 347 339 330 330 328 326 321 322 319 320 324 319 316 318 316 314 313 308 299 290 293 293 293 294 286 289 289 287 273 269 273 270 267 280 265 225 205 191 182 165 144
3 348 343 337 329 328 322 322 325 323 325 326 324 317 313 314 321 318 312 305 296 295 291 292 291 290 286 284 278 271 265 267 273 264 268 282 256 213 194 180 150 136 132
354 339 332 330 322 318 318 317 313 319 318 321 318 319 318 315 316 317 315 309 296 291 287 285 283 284 283 278 270 257 257 257 237 246 267 270 216 209 198 182 162 145 135
332 325 322 327 328 325 317 325 325 318 317 316 314 315 311 309 311 314 313 310 301 290 282 288 286 284 279 271 260 259 262 262 229 224 164 150 162 168 174 174 165 155 151
325 321 323 328 331 323 323 327 327 320 309 310 310 312 314 315 314 310 311 313 307 300 285 290 291 291 282 266 262 258 251 237 195 161 133 125 130 135 147 156 155 153 164
328 327 323 322 324 333 333 325 319 318 314 312 311 315 313 316 313 310 308 318 312 307 298 293 287 283 269 249 243 245 212 175 152 129 115 120 122 136 143 141 143 142 133
337 331 331 327 327 331 331 325 316 318 319 317 316 316 315 314 314 310 306 310 315 308 310 288 279 256 231 230 194 182 175 166 151 131 124 127 128 128 126 136 129 127 119
344 345 341 337 337 332 328 321 318 321 322 308 307 307 309 309 308 305 302 302 304 303 297 268 223 194 173 164 164 155 156 153 140 136 131 127 125 128 125 137 133 129 113
341 335 335 341 330 329 327 319 325 321 321 316 314 315 313 308 308 308 303 301 301 298 237 218 201 183 168 162 150 142 154 147 141 139 134 131 125 124 124 127 130 123 117
322 330 339 338 333 326 323 313 311 320 325 318 319 324 319 320 321 320 311 305 301 283 221 215 197 177 170 162 154 151 143 150 150 141 140 137 134 129 129 125 123 124 116
319 334 344 336 332 316 316 321 311 308 310 314 321 324 326 329 329 326 323 309 291 211 219 209 187 177 169 163 157 154 153 154 152 150 147 144 140 137 130 128 133 131 132
313 321 330 333 328 329 326 326 318 308 305 310 313 317 331 335 338 340 349 328 249 213 210 199 192 182 173 168 163 164 162 157 161 160 159 158 157 155 146 145 142 143 142
312 307 317 325 326 329 324 324 320 315 309 309 311 311 323 336 339 335 334 327 272 235 214 204 195 186 177 172 166 168 163 163 165 164 162 162 163 160 153 152 152 148 151
298 292 316 323 328 328 323 312 311 311 305 305 302 314 308 316 320 319 309 311 276 249 221 209 196 188 181 177 175 173 172 169 171 168 166 165 164 158 155 151 151 154 153
274 282 313 319 322 324 323 317 313 304 307 306 299 309 295 298 302 310 307 288 267 242 233 216 201 194 191 188 185 181 177 174 173 171 168 165 165 162 160 157 155 155 153
261 278 304 311 318 320 321 319 313 310 307 311 301 297 295 280 282 291 294 292 267 247 233 217 205 197 199 198 194 192 186 183 179 177 171 168 169 169 169 165 162 160 164
255 279 300 305 312 314 315 316 314 312 309 310 305 292 301 271 267 272 275 273 263 244 231 220 212 206 200 198 197 197 196 191 184 182 176 172 172 174 174 171 173 173 171
261 287 295 298 304 308 313 315 315 314 308 308 312 298 293 282 259 259 259 258 254 241 226 217 213 208 204 199 197 197 195 189 185 183 183 180 178 176 175 174 174 175 176
281 295 295 296 298 304 309 312 313 312 308 305 307 309 286 281 263 250 245 239 243 234 224 216 211 206 201 198 194 191 187 185 185 186 187 185 181 178 180 182 184 185 186